Location: Franzen
(48.6167°N, 15.3833°E)
Time: 06:17:36
(UTC+00:00)

Altair - Pass Details

Date: 07 August 2021
Orbit: 1501 x 1682 km, 47.2° (Epoch: 21 September)

Event Time Altitude Azimuth Distance (km) Brightness Sun altitude
Exits shadow 21:11:46 21° 115° (ESE) 2,969 8.5 -20.6°
Drops below altitude 10° 21:16:32 10° 85° (E) 3,721 9.3 -20.9°
Sets 21:20:22 0° 72° (ENE) 4,683 10.0 -21.2°
